Starlink 11162

operational
NORAD ID: 60123 Int'l Des: 2024-118 Owner: SPXS Country: US Constellation: starlink
LEOCIRCULAR

About Starlink 11162

Description loading...

Live Position

Loading 3D Globe...

Upcoming Passes

Altitude History

Altitude vs Time

uPlot chart will show altitude changes over time

Two-Line Element Set

1 60123U 24118L 25258.57441733 .00001713 00000-0 18980-4 0 9996
2 60123 53.1597 4.2108 0001127 79.8425 280.2720 15.69726284 70496
Epoch: Sep 15, 2025 • Age: 28 hours

Current Status

Altitude 365.4 km
Velocity 7.70 km/s
Sub-Earth Point 53.25°N, 176.32°W
Launch Date Jun 24, 2024
Age 1.2 years
Type internet

Technical Details

Classification Payload
Mass 960.00 kg
Dry Mass 910.00 kg
Total Mass 960.00 kg
Length 0.30 m
Diameter 4.10 m
Span 29.00 m
Shape Box + pan
Manufacturer SPXS
Bus Type Starlink V2MD
Phase Status In Orbit
Owner/State SPXS/US

Large Constellations

Loading constellations...